Home > Weather > San Diego > Past weeks

Flag for USA Weather for the Past 2 Weeks in San Diego, California, USA

Now
60 °F

Overcast.


Feels Like: 60 °F
Forecast: 59 / 65 °F
Wind: 6 mph from Northwest

Location: San Diego - North Island

Current Time: May 4, 2016 at 4:59:50 AM

Latest Report: May 4, 2016 at 3:52 AM


Visibility: 10 mi

Pressure: 29.93 "Hg

Humidity: 80%

Dew Point: 54 °F

Location of San DiegoLocation

Historic Weather in San Diego — Graph

°F

San Diego Temperature Yesterday

Maximum temperature yesterday: 66 °F (at 10:52 AM)
Minimum temperature yesterday: 59 °F (at 2:52 AM)
Average temperature yesterday: 62 °F

High & Low Weather Summary for the Past Weeks

 TemperatureHumidityPressure
High81 °F (Apr 19, 2:52 PM)93% (Apr 24, 7:01 AM)30.05 "Hg (Apr 24, 7:01 AM)
Low54 °F (Apr 26, 3:52 AM)18% (Apr 19, 1:52 PM)29.79 "Hg (Apr 30, 3:52 PM)
Average62 °F69%29.93 "Hg
* Reported Apr 19 3:52 AM — May 4 3:52 AM, San Diego, Weather by CustomWeather, © 2016

Note: Actual official high and low records may vary slightly from our data, if they occured in-between our weather recording intervals... More about our weather records

Advertising

San Diego Weather History for the Previous 24 Hours

Scroll right to see more
 ConditionsComfort  
Time TempWeatherWind HumidityBarometerVisibility
3:52 AM
Wed, May 4
60 °FOvercast.6 mph80%29.93 "Hg10 mi
2:52 AM60 °FPassing clouds.No wind80%29.94 "Hg10 mi
1:52 AM60 °FPassing clouds.No wind83%29.95 "Hg10 mi
12:52 AM60 °FOvercast.No wind83%29.96 "Hg10 mi
11:52 PM
Tue, May 3
60 °FOvercast.3 mph83%29.97 "Hg10 mi
10:52 PM61 °FOvercast.6 mph81%29.97 "Hg10 mi
9:52 PM61 °FOvercast.6 mph81%29.96 "Hg10 mi
8:52 PM61 °FPassing clouds.12 mph81%29.95 "Hg10 mi
7:52 PM61 °FPartly sunny.8 mph81%29.93 "Hg10 mi
6:52 PM62 °FPartly sunny.8 mph78%29.92 "Hg10 mi
5:52 PM63 °FPartly sunny.12 mph75%29.92 "Hg10 mi
4:52 PM64 °FPartly sunny.8 mph73%29.92 "Hg10 mi
3:52 PM64 °FPartly sunny.9 mph73%29.93 "Hg10 mi
2:52 PM65 °FBroken clouds.7 mph73%29.95 "Hg10 mi
1:52 PM66 °FBroken clouds.12 mph70%29.96 "Hg10 mi
12:52 PM65 °FPassing clouds.7 mph73%29.98 "Hg10 mi
11:52 AM65 °FPassing clouds.10 mph73%29.97 "Hg10 mi
10:52 AM66 °FPassing clouds.12 mph73%29.97 "Hg10 mi
9:52 AM65 °FScattered clouds.12 mph73%29.98 "Hg10 mi
8:52 AM63 °FPartly sunny.7 mph78%29.97 "Hg10 mi
7:52 AM61 °FScattered clouds.5 mph83%29.96 "Hg9 mi
6:52 AM59 °FPassing clouds.7 mph87%29.96 "Hg9 mi
4:52 AM60 °FPassing clouds.6 mph86%29.95 "Hg9 mi
Weather by CustomWeather, © 2016

See weather overviewHow to use our weather pages